Probability
0 0 0 0 0 0 0 0 0 0 0 0 0 0 0 0 0 0 0 0 0 0 0 0 0 0 0 0 0 0 0 0 0 0 0 0 0 0
0 0 0 0 0 0 0 0 0 0 0 0 0 0 0 0 0 0 0 0 0 0 0 0 0 0 0 0 0 0 0 0 0 0 0 0 0 0
0 0 0 0 0 0 0 0 0 0 0 0 0 0 0 0 0 0 0 0 0 0 0 0 0 0 0 0 0 0 0 0 0 0 0 0 0 0
0 0 0 0 0 0 0 0 0 0 0 0 0 0 0 0 0 0 0 0 0 0 0 0 0 0 0 0 0 0 0 0 0 0 0 0 0 0
0 0 0 0 0 0 0 0 0 0 0 0 0 0 0 0 0 0 0 0 0 0 0 0 0 0 0 0 0 0 0 0 0 0 0 0 0 0
0 0 0 0 0 0 0 0 0 0 0 0 0 0 0 0 0 0 0 0 0 0 0 0 0 0 0 0 0 0 0 0 0 0 0 0 0 0
0 0 0 0 0 0 0 0 0 0 0 0 0 0 0 0 0 0 0 0 0 0 0 0 0 0 0 0 0 0 0 0 0 0 0 0 0 0
0 0 0 0 0 0 0 0 0 0 0 0 0 0 0 0 0 0 0 0 0 0 0 0 0 0 0 0 0 0 0 0 0 0 0 0 0 0
0 0 0 0 0 0 0 0 0 0 0 0 0 0 0 0 0 0 0 0 0 0 0 0 0 0 0 0 0 0 0 0 0 0 0 0 0 0
0 0 0 0 0 0 0 0 0 0 0 0 0 0 0 0 0 0 0 0 0 0 0 0 0 0 0 0 0 0 0 0 0 0 0 0 0 0
0 0 0 0 0 0 0 0 0 0 0 0 0 0 0 0 0 0 0 0 0 0 0 0 0 0 0 0 0 0 0 0 0 0 0 0 0 0
0 0 0 0 0 0 0 0 0 0 0 0 0 0 0 0 0 0 0 0 0 0 0 0 0 0 0 0 0 0 0 0 0 0 0 0 0 0
0 0 0 0 0 0 0 0 0 0 0 0 0 0 0 0 0 0 0 0 0 0 0 0 0 0 0 0 0 0 0 0 0 0 0 0 0 0
0 0 0 0 0 0 0 0 0 0 0 0 0 0 0 0 0 0 0 0 0 0 0 0 0 0 0 0 0 0 0 0 0 0 0 0 0 0
0 0 0 0 0 0 0 0 0 0 0 0 0 0 0 0 0 0 0 0 0 0 0 0 0 0 0 0 0 0 0 0 0 0 0 0 0 0
0 0 0 0 0 0 0 0 0 0 0 0 0 0 0 0 0 0 0 0 0 0 0 0 0 0 0 0 0 0 0 0 0 0 0 0 0 0
0 0 0 0 0 0 0 0 0 0 0 0 0 0 0 0 0 0 0 0 0 0 0 0 0 0 0 0 0 0 0 0 0 0 0 0 0 0
0 0 0 0 0 0 0 0 0 0 0 0 0 0 0 0 0 0 0 0 0 0 0 0 0 0 0 0 0 0 0 0 0 0 0 0 0 0
0 0 0 0 0 0 0 0 0 0 0 0 0 0 0 0 0 0 0 0 0 0 0 0 0 0 0 0 0 0 0 0 0 0 0 0 0 0
0 0 0 0 0 0 0 0 0 0 0 0 0 0 0 0 0 0 0 0 0 0 0 0 0 0 0 0 0 0 0 0 0 0 0 0 0 0
0 0 0 0 0 0 0 0 0 0 0 0 0 0 0 0 0 0 0 0 0 0 0 0 0 0 0 0 0 0 0 0 0 0 0 0 0 0
0 0 0 0 0 0 0 0 0 0 0 0 0 0 0 0 0 0 0 0 0 0 0 0 0 0 0 0 0 0 0 0 0 0 0 0 0 0
0 0 0 0 0 0 0 0 0 0 0 0 0 0 0 0 0 0 0 0 0 0 0 0 0 0 0 0 0 0 0 0 0 0 0 0 0 0
Height
5702 5701 5699 5698 5696 5694 5692 5689 5687 5684 5681 5677 5673 5669 5664 5661 5657 5654 5650 5646 5641 5637 5632 5628 5624 5620 5617 5613 5610 5607 5604 5601 5599 5597 5595 5592 5591 5589
5690 5689 5687 5686 5683 5681 5678 5675 5672 5670 5667 5664 5659 5654 5649 5645 5640 5636 5632 5627 5622 5618 5613 5608 5603 5599 5595 5591 5587 5584 5581 5578 5575 5573 5570 5567 5565 5563
5678 5677 5675 5673 5671 5667 5664 5661 5658 5654 5651 5648 5643 5638 5633 5627 5622 5617 5612 5608 5602 5596 5591 5585 5581 5576 5572 5567 5563 5559 5555 5552 5549 5545 5542 5539 5536 5534
5666 5665 5663 5661 5658 5654 5651 5647 5643 5639 5635 5631 5626 5620 5615 5609 5603 5598 5593 5587 5581 5575 5568 5562 5556 5551 5546 5541 5536 5532 5528 5523 5519 5515 5511 5508 5505 5502
5654 5652 5650 5648 5644 5641 5637 5633 5628 5623 5618 5613 5609 5602 5596 5589 5583 5578 5572 5566 5559 5551 5544 5537 5531 5524 5518 5512 5507 5502 5497 5491 5487 5482 5478 5475 5472 5470
5642 5640 5638 5635 5631 5627 5623 5618 5612 5607 5601 5595 5590 5584 5577 5569 5562 5557 5553 5544 5536 5527 5518 5511 5503 5496 5488 5482 5477 5471 5465 5460 5455 5451 5448 5445 5442 5440
5630 5628 5625 5622 5617 5613 5608 5602 5597 5590 5583 5577 5571 5564 5556 5548 5541 5534 5529 5522 5514 5502 5494 5484 5474 5467 5459 5451 5445 5439 5434 5430 5426 5423 5420 5418 5416 5414
5619 5616 5613 5609 5604 5599 5593 5587 5580 5572 5565 5558 5552 5544 5536 5527 5519 5511 5503 5497 5490 5478 5467 5460 5446 5440 5431 5424 5416 5409 5405 5402 5400 5398 5396 5393 5392 5390
5607 5604 5600 5595 5590 5584 5578 5571 5562 5553 5546 5539 5531 5522 5513 5504 5496 5488 5478 5469 5461 5448 5439 5437 5423 5416 5408 5400 5392 5386 5382 5379 5377 5375 5374 5372 5370 5368
5596 5592 5587 5581 5575 5569 5563 5554 5545 5535 5526 5517 5508 5499 5489 5479 5470 5462 5453 5445 5437 5423 5412 5411 5404 5396 5389 5381 5372 5366 5363 5360 5358 5356 5355 5353 5350 5348
5584 5579 5574 5568 5561 5554 5546 5537 5527 5516 5505 5494 5484 5475 5465 5455 5446 5439 5431 5423 5418 5408 5394 5390 5385 5379 5374 5366 5357 5350 5346 5343 5341 5340 5337 5335 5333 5331
5572 5566 5560 5553 5544 5535 5527 5517 5507 5496 5485 5474 5462 5451 5442 5434 5426 5419 5413 5407 5400 5394 5383 5377 5371 5363 5361 5355 5346 5338 5332 5329 5327 5325 5323 5320 5318 5316
5559 5552 5544 5536 5526 5516 5506 5497 5486 5476 5465 5454 5443 5434 5426 5418 5412 5405 5399 5393 5387 5380 5373 5367 5361 5353 5347 5344 5339 5330 5324 5320 5317 5314 5311 5309 5307 5305
5546 5538 5529 5519 5508 5497 5487 5476 5466 5456 5446 5437 5429 5422 5415 5408 5402 5395 5389 5382 5375 5369 5363 5357 5351 5345 5339 5334 5330 5324 5318 5312 5309 5306 5303 5301 5298 5296
5532 5523 5512 5501 5489 5478 5467 5457 5448 5440 5433 5426 5419 5413 5406 5400 5394 5388 5381 5374 5367 5360 5354 5348 5343 5337 5331 5325 5321 5317 5312 5308 5302 5300 5297 5294 5292 5289
5516 5506 5494 5483 5472 5462 5452 5444 5436 5430 5423 5417 5411 5405 5399 5393 5387 5381 5375 5368 5362 5354 5346 5341 5335 5329 5324 5319 5314 5310 5306 5302 5299 5294 5291 5288 5285 5283
5501 5490 5479 5469 5459 5450 5443 5436 5429 5423 5418 5412 5406 5400 5394 5387 5381 5375 5368 5362 5356 5350 5344 5336 5329 5323 5318 5312 5308 5303 5300 5296 5293 5289 5286 5283 5279 5276
5487 5477 5467 5458 5450 5443 5436 5430 5424 5419 5413 5407 5401 5395 5389 5382 5376 5369 5363 5357 5350 5344 5338 5332 5326 5321 5314 5307 5301 5297 5294 5290 5286 5282 5278 5276 5273 5269
5476 5467 5459 5451 5444 5437 5431 5425 5420 5414 5409 5403 5396 5390 5384 5377 5371 5365 5358 5352 5346 5339 5332 5326 5321 5316 5311 5306 5299 5291 5288 5284 5280 5276 5272 5268 5265 5262
5466 5459 5452 5445 5438 5432 5426 5421 5415 5410 5404 5398 5392 5385 5379 5373 5367 5360 5354 5348 5341 5335 5328 5321 5315 5309 5304 5300 5295 5289 5281 5277 5273 5270 5266 5262 5257 5254
5458 5451 5445 5439 5433 5427 5422 5416 5411 5405 5399 5393 5387 5381 5374 5368 5362 5356 5349 5343 5336 5330 5324 5317 5310 5304 5298 5294 5289 5284 5278 5271 5265 5261 5257 5254 5250 5246
5451 5445 5439 5433 5428 5422 5417 5412 5406 5400 5394 5388 5382 5376 5370 5363 5357 5351 5345 5338 5332 5325 5319 5313 5306 5300 5294 5288 5283 5279 5273 5267 5260 5253 5247 5243 5240 5237
5444 5438 5433 5427 5422 5417 5412 5407 5401 5395 5390 5384 5377 5371 5365 5359 5353 5346 5340 5334 5327 5321 5315 5309 5303 5296 5289 5283 5277 5272 5267 5261 5255 5249 5243 5235 5231 5227
Wind_Speed
54 53 54 53 52 52 52 52 52 51 51 52 55 57 59 61 62 63 65 66 66 67 69 69 70 71 71 71 71 71 71 72 73 73 74 75 76 77
55 55 54 54 54 54 55 55 54 55 55 55 58 60 64 66 67 68 68 69 70 71 72 73 73 73 74 74 74 75 75 76 77 78 78 80 81 82
55 55 54 55 55 56 57 58 58 59 59 61 62 65 68 70 70 72 72 73 73 74 75 75 76 76 77 78 78 79 80 80 81 83 84 86 87 88
54 54 54 55 55 56 57 59 60 62 64 64 65 69 71 72 74 74 74 75 76 77 78 78 79 80 81 82 82 83 84 85 86 88 89 89 90 91
53 53 53 54 55 57 59 61 64 66 67 68 69 72 73 75 75 75 76 77 79 80 80 81 83 84 85 86 86 87 87 88 88 88 87 86 85 84
51 52 52 55 56 58 60 63 66 68 69 71 73 74 75 75 77 77 78 79 80 82 84 85 86 87 88 88 88 87 86 85 84 82 80 78 76 74
49 50 52 54 56 59 62 65 68 70 72 73 74 75 76 77 79 81 81 82 83 85 87 88 88 88 88 87 85 83 81 79 77 74 72 70 68 66
47 49 51 54 57 61 63 66 69 70 72 74 75 76 78 81 82 84 85 86 85 87 87 85 86 84 82 80 76 74 72 70 67 65 63 61 60 59
46 49 52 55 59 61 63 66 68 71 74 76 78 80 82 84 85 86 87 86 85 84 83 78 76 74 71 68 66 65 63 61 59 58 56 55 54 54
47 51 54 56 58 61 64 66 70 73 76 78 80 82 84 86 86 84 82 79 74 71 71 66 63 61 58 56 57 56 55 54 53 52 50 49 49 49
46 49 53 56 59 62 65 68 72 75 77 80 82 83 82 80 77 73 67 62 58 56 57 55 51 49 46 46 48 50 50 50 48 46 43 43 42 42
46 50 53 57 61 65 68 71 73 76 77 78 78 76 72 67 62 58 53 50 48 45 45 44 42 41 37 35 39 43 45 45 44 41 38 36 34 32
48 52 57 61 65 69 71 73 74 74 73 70 66 61 56 52 49 47 45 43 41 40 39 37 34 34 32 28 29 34 37 38 37 35 34 30 27 26
51 56 60 65 67 69 69 69 67 64 58 53 49 46 44 42 41 40 40 38 38 37 35 33 31 30 28 26 25 28 31 32 31 30 28 26 24 22
55 60 63 65 65 64 62 57 52 47 43 41 39 37 36 36 36 35 35 35 35 36 34 32 30 28 27 25 23 24 25 26 28 26 24 23 23 21
59 62 63 62 58 54 49 44 39 36 34 33 31 31 32 32 32 32 31 31 31 33 34 33 31 29 27 25 24 22 23 22 23 24 23 23 23 21
60 59 57 53 48 43 38 34 31 30 29 28 28 29 30 31 31 31 30 30 30 30 30 32 31 29 29 27 25 23 22 21 22 22 23 23 25 24
56 53 49 44 39 36 32 30 28 28 27 28 28 29 29 30 30 30 30 30 30 30 30 29 27 26 27 29 30 26 24 23 23 24 24 23 23 26
50 45 41 37 34 32 29 28 27 27 27 29 29 29 29 30 30 29 29 29 30 30 31 30 27 25 23 23 26 29 26 24 24 25 25 25 24 26
43 39 36 34 32 30 28 27 27 27 28 30 30 30 30 30 30 29 30 30 29 29 30 30 30 28 26 23 23 26 29 27 25 25 25 25 25 26
39 35 33 32 30 28 27 27 28 28 29 30 30 30 30 30 30 30 30 31 31 30 30 29 30 29 27 25 25 26 28 30 29 27 26 25 25 26
35 33 31 29 28 27 27 28 28 29 30 30 30 30 30 31 31 31 31 31 31 31 30 29 29 29 28 28 27 26 27 28 30 31 32 30 27 24
32 31 29 28 27 27 28 28 29 29 30 30 30 30 31 31 32 32 32 32 31 30 29 28 28 29 29 30 29 29 29 28 29 29 31 32 30 27
Wind_Direction
273 275 277 279 281 282 283 284 284 284 285 286 286 287 289 290 291 292 292 292 291 291 291 290 289 288 287 286 285 283 282 281 280 279 278 277 276 274
271 274 276 279 280 281 282 283 283 284 285 285 286 288 290 290 291 292 292 292 291 290 290 289 288 287 286 285 284 283 282 281 280 279 278 277 276 275
271 273 276 278 280 281 281 283 283 285 284 286 287 289 290 291 292 292 292 291 291 290 290 289 288 287 286 285 284 283 282 281 280 279 278 277 276 275
270 273 276 277 279 280 281 283 284 285 286 287 288 290 291 292 292 292 292 292 291 291 290 289 288 288 287 286 285 284 283 282 281 280 279 278 277 276
270 273 275 277 278 279 280 283 284 285 286 288 290 291 291 292 292 292 292 292 292 292 291 290 289 289 288 287 286 286 284 283 282 281 280 279 277 276
270 272 274 276 279 280 282 283 285 287 289 290 291 291 292 293 293 293 293 293 293 292 291 291 290 290 289 288 287 286 285 284 283 281 280 279 278 276
270 273 275 277 280 282 283 285 287 289 291 292 293 294 294 294 294 294 294 294 293 292 292 292 291 290 289 289 288 287 285 284 282 281 280 279 277 275
273 275 277 279 281 283 285 287 289 291 293 294 295 295 295 295 295 295 295 294 293 292 292 292 291 291 290 289 288 287 285 284 283 281 280 278 276 274
275 277 279 281 284 286 288 291 293 295 295 296 296 296 296 296 296 296 295 295 295 294 293 292 291 291 290 289 287 286 285 285 284 283 282 280 278 276
278 280 283 286 289 292 294 295 296 297 297 298 298 298 297 297 297 297 296 296 296 295 294 295 293 293 292 290 288 287 286 285 285 284 284 282 280 277
286 288 291 294 295 296 297 298 299 299 299 299 299 299 299 298 298 299 299 300 300 299 298 300 298 296 295 292 289 287 287 288 288 288 287 285 282 278
295 297 298 299 299 300 300 300 300 300 300 300 300 300 301 301 302 303 304 304 305 303 302 305 304 302 299 293 289 288 290 292 294 295 293 292 288 283
301 302 302 303 303 303 302 301 301 301 301 301 301 302 304 306 307 308 309 310 310 309 309 310 309 307 306 301 292 291 293 294 297 298 300 299 294 287
306 306 306 306 306 305 304 304 304 304 304 304 306 307 309 310 312 313 314 315 315 315 316 317 317 314 311 306 300 295 296 298 300 301 301 301 298 292
311 310 310 310 309 309 308 308 309 309 310 311 312 313 314 315 316 318 319 320 320 320 321 323 323 322 318 314 308 303 300 299 301 303 303 301 299 296
315 314 314 314 313 313 314 314 315 316 318 319 320 321 322 322 322 323 323 323 324 323 324 327 328 327 324 320 316 312 308 304 301 304 305 302 299 296
318 318 318 318 318 319 320 321 322 324 326 327 328 328 328 327 327 327 327 327 326 325 325 325 327 327 326 324 322 319 315 310 306 303 302 301 299 295
321 321 321 323 324 324 325 325 326 328 330 331 332 332 332 331 330 330 330 329 328 327 327 326 326 326 326 325 324 323 321 318 313 310 308 305 299 295
322 323 324 326 327 327 327 328 328 329 330 332 333 333 333 333 333 333 332 332 331 329 328 328 328 327 326 322 318 318 320 318 314 311 309 307 302 297
323 324 325 326 326 327 328 329 329 330 331 332 333 333 333 334 334 334 334 333 333 331 330 329 329 329 329 327 322 319 319 320 317 314 311 309 305 300
322 323 324 325 326 327 327 328 329 330 331 332 333 334 334 334 334 335 335 335 335 334 332 330 329 329 330 329 327 324 322 322 321 319 316 312 307 301
321 322 324 325 326 327 327 328 329 330 331 332 333 334 334 335 335 335 335 335 335 334 333 332 330 329 329 329 328 327 325 323 321 320 318 317 313 307
322 323 325 325 325 327 328 328 329 329 330 331 332 332 334 335 335 335 335 335 334 333 332 332 331 330 329 329 329 328 327 325 323 320 318 318 317 315